Location: Kerguer�zec
(48.4509°N, 4.7600°W)
Time: 18:10:23
(UTC+00:00)

SL-16 R/B - Pass Details

Date: 09 April 2020
Orbit: 842 x 846 km, 71.0° (Epoch: 28 May)

Event Time Altitude Azimuth Distance (km) Brightness Sun altitude
Rises 21:27:31 0° 336° (NNW) 3,415 6.5 -22.0°
Reaches altitude 10° 21:30:49 10° 355° (N) 2,477 5.3 -22.4°
Maximum altitude 21:34:39 18° 38° (NE) 1,960 4.1 -22.8°
Enters shadow 21:36:51 15° 65° (ENE) 2,141 4.1 -23.1°
